TimeEST,TemperatureF,Dew PointF,Humidity,Sea Level PressureIn,VisibilityMPH,Wind Direction,Wind SpeedMPH,Gust SpeedMPH,PrecipitationIn,Events,Conditions,WindDirDegrees,DateUTC
12:53 AM,71.1,66.0,84,30.13,10.0,NE,6.9,-,N/A,,Overcast,40,2012-12-05 05:53:00
1:53 AM,72.0,66.0,81,30.12,10.0,NE,8.1,-,N/A,,Overcast,40,2012-12-05 06:53:00
2:53 AM,71.1,66.0,84,30.10,10.0,NE,8.1,-,N/A,,Overcast,40,2012-12-05 07:53:00
3:53 AM,70.0,66.0,87,30.09,5.0,NE,9.2,-,0.00,Rain,Rain,50,2012-12-05 08:53:00
4:53 AM,69.1,66.9,93,30.08,7.0,NNE,9.2,-,0.05,Rain,Rain,30,2012-12-05 09:53:00
5:53 AM,69.1,66.9,93,30.09,5.0,NNE,4.6,-,0.25,Rain,Light Rain,20,2012-12-05 10:53:00
6:53 AM,69.1,66.9,93,30.09,7.0,NE,6.9,-,0.12,Rain,Light Rain,40,2012-12-05 11:53:00
7:53 AM,69.1,66.9,93,30.12,6.0,NNE,9.2,-,0.06,Rain,Light Rain,30,2012-12-05 12:53:00
9:53 AM,71.1,68.0,90,30.13,10.0,NE,6.9,-,0.00,,Overcast,40,2012-12-05 14:53:00
10:53 AM,73.0,68.0,84,30.12,10.0,NE,6.9,-,N/A,,Overcast,50,2012-12-05 15:53:00
11:53 AM,75.9,66.9,74,30.10,10.0,ENE,6.9,-,N/A,,Mostly Cloudy,70,2012-12-05 16:53:00
12:53 PM,75.0,64.0,69,30.07,10.0,East,11.5,-,N/A,,Overcast,90,2012-12-05 17:53:00
1:53 PM,73.9,64.0,71,30.04,10.0,ENE,6.9,-,0.00,Rain,Light Rain,70,2012-12-05 18:53:00
2:53 PM,73.0,64.9,76,30.03,10.0,North,3.5,-,0.01,,Overcast,10,2012-12-05 19:53:00
3:53 PM,72.0,68.0,87,30.02,10.0,NNE,6.9,-,0.00,,Overcast,20,2012-12-05 20:53:00
4:53 PM,72.0,66.9,84,30.02,10.0,NNE,5.8,-,N/A,,Overcast,30,2012-12-05 21:53:00
5:53 PM,72.0,66.9,84,30.02,10.0,NE,4.6,-,N/A,,Overcast,40,2012-12-05 22:53:00
6:53 PM,72.0,66.9,84,30.03,10.0,NE,4.6,-,N/A,,Overcast,40,2012-12-05 23:53:00
7:53 PM,72.0,66.0,81,30.03,10.0,ENE,4.6,-,N/A,,Mostly Cloudy,70,2012-12-06 00:53:00
8:53 PM,72.0,64.9,78,30.03,10.0,Variable,5.8,-,N/A,,Overcast,0,2012-12-06 01:53:00
9:53 PM,72.0,64.9,78,30.02,10.0,ENE,6.9,-,N/A,,Overcast,60,2012-12-06 02:53:00
10:53 PM,72.0,64.9,78,30.03,10.0,ENE,4.6,-,N/A,,Overcast,60,2012-12-06 03:53:00
11:53 PM,72.0,64.9,78,30.01,10.0,NE,5.8,-,N/A,,Overcast,40,2012-12-06 04:53:00